This is the latest recevied weather packets stored in our database for station/object DL6MAA-11. If no packets are shown the sender has not sent any weather packets the latest 10 day(s).
| Time | Temp. | Humidity | Pressure | Rain* | Wind** | Luminosity | Snow |
|---|---|---|---|---|---|---|---|
| 1777723335 | 23.89° C | 35% | 1018.1 hPa | 0 mm | - | 508 W/m² | - |
| 1777723030 | 23.89° C | 35% | 1018.5 hPa | 0 mm | - | 508 W/m² | - |
| 1777722721 | 23.89° C | 35% | 1018.5 hPa | 0 mm | - | 499 W/m² | - |
| 1777722427 | 23.89° C | 35% | 1018.5 hPa | 0 mm | - | 499 W/m² | - |
| 1777722129 | 23.89° C | 34% | 1018.6 hPa | 0 mm | - | 524 W/m² | - |
| 1777721834 | 23.33° C | 36% | 1018.6 hPa | 0 mm | - | 512 W/m² | - |
| 1777721538 | 23.89° C | 34% | 1018.6 hPa | 0 mm | - | 531 W/m² | - |
| 1777721240 | 23.89° C | 37% | 1018.9 hPa | 0 mm | - | 527 W/m² | - |
| 1777720930 | 23.33° C | 37% | 1018.9 hPa | 0 mm | - | 504 W/m² | - |
| 1777720623 | 23.33° C | 36% | 1018.9 hPa | 0 mm | - | 561 W/m² | - |
| 1777720322 | 23.33° C | 36% | 1018.9 hPa | 0 mm | - | 533 W/m² | - |
| 1777720041 | 23.33° C | 38% | 1018.9 hPa | 0 mm | - | 527 W/m² | - |
| 1777719727 | 23.33° C | 38% | 1018.9 hPa | 0 mm | - | 543 W/m² | - |
| 1777719428 | 22.78° C | 37% | 1019 hPa | 0 mm | - | 554 W/m² | - |
| 1777719132 | 23.33° C | 34% | 1019 hPa | 0 mm | - | 555 W/m² | - |
| 1777718833 | 22.78° C | 35% | 1019 hPa | 0 mm | - | 555 W/m² | - |
| 1777718539 | 23.33° C | 37% | 1019.1 hPa | 0 mm | - | 568 W/m² | - |
| 1777718222 | 22.78° C | 38% | 1019.1 hPa | 0 mm | - | 552 W/m² | - |
| 1777717924 | 22.78° C | 36% | 1019.1 hPa | 0 mm | - | 548 W/m² | - |
| 1777717639 | 22.22° C | 35% | 1019.5 hPa | 0 mm | - | 554 W/m² | - |
| 1777717328 | 22.22° C | 36% | 1019.5 hPa | 0 mm | - | 547 W/m² | - |
| 1777717033 | 22.22° C | 36% | 1019.5 hPa | 0 mm | - | 540 W/m² | - |
| 1777716737 | 22.22° C | 34% | 1019.4 hPa | 0 mm | - | 534 W/m² | - |
| 1777716422 | 22.22° C | 36% | 1019.4 hPa | 0 mm | - | 536 W/m² | - |
| 1777716141 | 22.22° C | 36% | 1019.4 hPa | 0 mm | - | 529 W/m² | - |
* Rain since midnight (hover to see other rain measurements)
** Current wind speed in m/s (hover to see current wind gust speed)